Weather History for Ottawa International, ON

Change the Weather History Date:

Tuesday, November 5, 2013

  Actual Average Record
Temperature  
Mean Temperature 38 °F -  
Max Temperature 51 °F 38 °F 66 °F (2008)
Min Temperature 26 °F 24 °F 24 °F (2012)
Degree Days  
Heating Degree Days 26    
Moisture  
Dew Point 26 °F    
Average Humidity 57    
Maximum Humidity 74    
Minimum Humidity 31    
Precipitation  
Precipitation 0.00 in 0.11 in - ()
Sea Level Pressure  
Sea Level Pressure 30.47 in    
Wind  
Wind Speed 7 mph ()    
Max Wind Speed 12 mph    
Max Gust Speed -    
Visibility 15.0 miles    
Events      
Averages and records for this station are not official NWS values.
T = Trace of Precipitation, MM = Missing Value Source: Averaged Metar Reports

Daily Weather History Graph

Daily Weather History Graph

Search for Another Location

Airport:

Trip Planner

Search our weather history database for the weather conditions in past years. The results will help you decide how hot, cold, wet, or windy it might be!

Date:

Astronomy

Nov. 05, 2013 Rise Set
Actual Time 6:47 AM EST 4:44 PM EST
Civil Twilight 6:16 AM EST 5:15 PM EST
Nautical Twilight 5:41 AM EST 5:50 PM EST
Astronomical Twilight 5:06 AM EST 6:24 PM EST
Moon 9:04 AM EST (11/5) 6:39 PM EST (11/5)
Length of Visible Light 10h 58m
Length of Day
9h 56m
Waxing Crescent, 6% of the Moon is Illuminated
Nov 5
Waxing Crescent
Nov 10
First Quarter
Nov 17
Full
Nov 25
Last Quarter
Dec 2
New

Hourly Weather History & Observations

Time (EST) Temp. Windchill Dew Point Humidity Pressure Visibility Wind Dir Wind Speed Gust Speed Precip Events Conditions
12:00 AM 30.2 °F 21.9 °F 19.4 °F 64% 30.59 in 15.0 mi East 9.2 mph - N/A   Mostly Cloudy
1:00 AM 30 °F - 21 °F 57% 30.57 in 15 mi East 9.2 mph - -   Overcast
1:00 AM 30.2 °F 22.6 °F 21.2 °F 69% 30.57 in 15.0 mi East 8.1 mph - N/A   Overcast
2:00 AM 28.4 °F 18.5 °F 21.2 °F 74% 30.53 in 15.0 mi East 11.5 mph - N/A   Mostly Cloudy
3:00 AM 28.4 °F 21.2 °F 21.2 °F 74% 30.53 in 15.0 mi East 6.9 mph - N/A   Mostly Cloudy
4:00 AM 28.4 °F 21.2 °F 21.2 °F 74% 30.53 in 15.0 mi ENE 6.9 mph - N/A   Mostly Cloudy
5:00 AM 28.4 °F 21.2 °F 21.2 °F 74% 30.53 in 15.0 mi East 6.9 mph - N/A   Mostly Cloudy
6:00 AM 28.4 °F 20.4 °F 21.2 °F 74% 30.52 in 15.0 mi ESE 8.1 mph - N/A   Mostly Cloudy
7:00 AM 28 °F - 21 °F 66% 30.51 in 15 mi ESE 8.1 mph - -   Mostly Cloudy
7:00 AM 28.4 °F 20.4 °F 21.2 °F 74% 30.51 in 15.0 mi East 8.1 mph - N/A   Mostly Cloudy
8:00 AM 32.0 °F 24.2 °F 19.4 °F 60% 30.51 in 15.0 mi SE 9.2 mph - N/A   Mostly Cloudy
9:00 AM 35.6 °F 29.2 °F 21.2 °F 56% 30.50 in 15.0 mi SSE 8.1 mph - N/A   Scattered Clouds
10:00 AM 41.0 °F 36.4 °F 23.0 °F 49% 30.50 in 15.0 mi South 6.9 mph - N/A   Partly Cloudy
11:00 AM 44.6 °F 39.7 °F 24.8 °F 46% 30.49 in 15.0 mi South 9.2 mph - N/A   Mostly Cloudy
12:00 PM 46.4 °F 41.9 °F 28.4 °F 50% 30.47 in 15.0 mi South 9.2 mph - N/A   Mostly Cloudy
1:00 PM 48 °F - 27 °F 31% 30.44 in 15 mi SSE 9.2 mph - -   Partly Cloudy
1:00 PM 48.2 °F - 26.6 °F 43% 30.44 in 15.0 mi SSE 8.1 mph - N/A   Scattered Clouds
2:00 PM 50.0 °F - 28.4 °F 43% 30.43 in 15.0 mi South 11.5 mph - N/A   Partly Cloudy
3:00 PM 50.0 °F - 30.2 °F 47% 30.42 in 15.0 mi South 10.4 mph - N/A   Scattered Clouds
4:00 PM 50.0 °F - 30.2 °F 47% 30.41 in 15.0 mi South 5.8 mph - N/A   Mostly Cloudy
5:00 PM 48.2 °F - 30.2 °F 50% 30.40 in 15.0 mi South 5.8 mph - N/A   Mostly Cloudy
6:00 PM 48.2 °F - 32.0 °F 54% 30.40 in 15.0 mi South 8.1 mph - N/A   Mostly Cloudy
7:00 PM 48 °F - 31 °F 40% 30.40 in 15 mi South 6.9 mph - -   Overcast
7:00 PM 48.2 °F - 32.0 °F 54% 30.40 in 15.0 mi South 6.9 mph - N/A   Overcast
8:00 PM 48.2 °F - 32.0 °F 54% 30.39 in 15.0 mi South 5.8 mph - N/A   Overcast
9:00 PM 46.4 °F 44.3 °F 32.0 °F 57% 30.38 in 15.0 mi SSE 4.6 mph - N/A   Overcast
10:00 PM 46.4 °F 43.5 °F 33.8 °F 62% 30.36 in 15.0 mi SSE 5.8 mph - N/A   Overcast
11:00 PM 46.4 °F 43.5 °F 33.8 °F 62% 30.34 in 15.0 mi South 5.8 mph - N/A   Mostly Cloudy